Lid_Strength_Index
0 0 2 4 10 11 15 13 9 10 10 7 6 7 9 8 9 13 2 1 0 0 0 -0 -1 -1 -1 -1 -1 -1 -1 -1 -1 -1 -1 -1 -1 -1 -1 -1 -1 -1 -1 -1 -1 -1 -1 -1 -1
1 1 4 8 12 16 15 11 12 10 7 5 6 6 8 9 5 4 3 1 -0 -0 0 -0 -1 -1 -1 -1 -1 -1 -1 -1 -1 -1 -1 -1 -1 -1 -1 -1 -1 -1 -1 -1 -1 -1 -1 -1 -1
2 4 8 10 13 16 14 11 10 8 6 6 8 5 6 8 4 4 1 0 -0 0 0 -0 -1 -1 -1 -1 -1 -1 -1 -1 -1 -1 -1 -1 -1 -1 -1 -1 -1 -1 -1 -1 -1 -1 -1 -1 -1
5 6 8 11 14 12 11 10 8 8 6 6 6 8 5 3 3 2 0 0 0 0 0 -1 -1 -1 -1 -1 -1 -1 -1 -1 -1 -1 -1 -1 -1 -1 -1 -1 -1 -1 -1 -1 -1 -1 -1 -1 -1
7 9 12 13 14 11 9 7 7 8 7 7 6 8 7 3 1 1 1 0 1 0 0 -0 -1 -1 -1 -1 -1 -1 -1 -1 -1 -1 -1 -1 -1 -1 -1 -1 -1 -1 -1 -1 -1 -1 -1 -1 -1
10 10 14 15 14 10 9 7 7 7 7 6 7 7 6 2 2 1 1 1 -0 0 0 0 -1 -1 -1 -1 -1 -1 -1 -1 -1 -1 -1 -1 -1 -1 -1 -1 -1 -1 -1 -1 -1 -1 -1 -1 -1
11 13 14 14 13 12 9 6 8 7 7 8 5 8 6 4 2 1 1 0 0 0 0 0 0 -0 -1 -1 -1 -1 -1 -1 -1 -1 -1 -1 -1 -1 -1 -1 -1 -1 -1 -1 -1 -1 -1 -1 -1
11 12 14 13 13 13 8 7 6 7 8 4 4 8 8 4 2 1 1 1 1 1 0 0 1 0 0 0 -1 -1 -1 -1 -1 -1 -1 0 0 0 -0 -0 -1 -2 -2 -1 -1 -2 -1 -1 -2
11 15 16 14 11 11 8 9 6 5 6 5 4 5 4 2 2 2 2 2 1 1 1 1 1 1 0 -0 -0 -1 -1 -0 0 1 0 2 3 3 3 1 -0 0 0 0 0 0 -0 1 1
13 15 14 11 8 10 8 8 7 7 7 7 6 4 3 3 3 3 4 4 3 3 3 3 2 1 1 0 1 2 2 3 3 4 3 3 4 3 2 2 2 2 2 2 2 1 1 2 4
14 15 13 11 8 7 8 8 6 8 9 7 8 6 4 4 4 4 3 3 3 3 3 3 4 3 4 4 3 2 3 4 4 4 4 3 3 4 4 4 3 4 4 5 5 4 4 5 5
13 12 12 11 6 7 8 7 8 7 7 5 5 4 4 4 4 4 4 3 3 4 3 3 4 4 4 4 4 4 3 4 4 3 2 3 3 4 3 3 4 4 4 4 4 4 4 4 4
14 11 10 6 6 7 6 8 8 8 5 4 4 4 5 4 4 3 3 4 4 5 4 4 4 5 5 5 5 4 4 4 3 4 3 4 4 5 4 4 3 3 3 3 3 4 4 5 4
11 11 11 7 8 7 8 8 7 7 5 5 5 5 5 4 4 4 4 4 4 4 4 4 4 5 6 6 6 5 3 4 4 4 4 3 4 4 4 4 3 3 3 3 2 3 3 3 4
10 11 9 9 8 8 7 10 9 6 5 6 6 5 5 4 3 4 4 4 4 4 3 4 6 6 5 5 4 5 5 4 5 5 4 3 3 4 4 4 4 4 3 3 3 3 3 3 2
11 12 14 11 8 8 8 13 8 6 6 7 6 6 5 5 4 5 5 6 6 7 6 6 5 5 6 6 5 5 5 5 5 4 4 3 3 4 5 5 4 4 3 3 3 4 4 4 4
13 14 14 12 8 9 10 13 8 6 7 7 7 6 6 6 6 6 7 7 7 7 7 6 6 6 6 7 6 6 6 6 6 4 4 4 3 3 5 4 4 4 3 3 3 4 4 4 4
15 14 14 13 11 9 11 12 9 7 7 7 7 7 6 7 7 7 7 7 7 7 7 7 6 6 7 7 7 6 6 6 6 5 4 4 4 3 4 4 3 3 3 3 3 4 2 4 4
12 13 13 11 9 11 11 11 10 8 8 8 7 7 7 7 7 7 7 7 7 7 7 7 7 7 7 7 8 8 7 7 5 5 4 4 4 3 4 3 3 3 2 2 1 4 3 4 4
11 13 13 12 10 11 11 12 9 9 8 8 8 7 7 8 7 7 7 8 7 7 7 7 8 8 8 8 8 7 8 6 6 6 5 4 4 4 3 2 2 1 1 1 2 5 3 3 3
12 13 13 12 9 10 12 14 12 9 8 7 7 6 7 7 7 8 7 7 6 7 7 7 8 8 9 9 8 7 7 7 8 7 7 6 4 4 3 2 2 2 2 3 4 5 6 5 5
13 10 10 11 11 14 11 18 14 11 10 9 8 8 8 8 7 7 7 7 7 7 7 6 8 9 9 8 8 8 9 9 9 8 7 6 4 4 3 3 4 4 4 5 5 5 6 6 7
11 9 10 11 12 13 13 14 15 11 13 11 9 7 8 8 8 7 7 6 6 7 7 7 8 9 8 7 8 8 8 8 8 7 7 6 6 4 4 4 5 5 6 6 5 6 7 7 7
8 10 12 12 13 17 13 13 15 14 12 10 9 7 8 9 8 7 6 6 7 7 6 7 8 8 8 7 8 8 8 8 8 8 7 7 7 6 4 4 6 5 5 6 6 6 6 7 8
11 14 17 17 17 16 13 14 13 11 10 9 9 8 8 8 8 7 8 7 7 7 7 7 8 8 7 7 7 7 7 7 8 8 7 7 7 7 5 5 6 6 6 6 7 7 7 7 8
12 13 16 19 18 16 13 15 13 10 8 7 7 7 8 8 8 7 7 8 7 7 6 6 7 8 8 7 7 7 7 7 7 7 7 8 8 7 7 4 6 6 6 5 5 7 7 8 8
12 14 13 15 15 16 15 14 10 10 9 8 8 8 9 8 7 8 7 7 7 7 6 6 7 8 8 7 7 7 7 7 7 7 7 8 9 7 7 5 7 7 6 7 7 7 8 6 6
10 10 14 15 18 19 16 16 14 13 11 9 9 8 8 7 7 8 7 7 7 6 7 6 7 8 8 7 7 7 7 7 7 7 8 8 9 8 7 6 7 8 7 7 7 8 7 7 7
12 13 13 14 15 17 18 17 11 10 10 10 9 8 7 6 8 8 7 7 7 6 7 7 7 8 8 7 7 7 7 6 6 7 7 7 8 8 7 7 8 8 9 8 7 7 7 8 8
10 12 13 15 16 15 15 15 10 9 8 8 8 7 6 6 7 7 8 8 8 7 7 7 7 7 7 7 7 7 6 6 7 7 7 6 8 8 7 7 8 8 9 9 8 8 7 7 8